STARLINK-11554, 62833

Orbit data source: Space-Track

STARLINK-11554, 62833 is a payload satellite owned by SpaceX/Seattle (US) in LEO that was launched on Mon, 27 Jan 2025 UTC via an FALCON 9 launch vehicle from the Air Force Eastern Test Range (AFETR). Payload-class satellites include a variety of spacecraft equipped with specific instruments for various scientific and technological missions. These include communications satellites like Starlink; space stations such as the ISS; scientific satellites like the Hubble; Earth observation satellites from companies like Planet Labs, Umbra, and HawkEye 360; GPS; miniature CubeSats for education and research; and military/defense satellites.

Loading next visibility...
Identifier
62833, 2025-019E
Orbit
LEO
Country
Flag of USUS
Related business
Manufacturer
SpaceX/Seattle
Mission
Operational Commercial Communications
Bus & Motor
STARLINK V2MD, Unknown motor
Mass
960 kg wet, ~910 kg dry
Launch date (UTC)
2025-01-27 (9 months ago)
Launch vehicle
FALCON 9
Launch site
Air Force Eastern Test Range (AFETR)
Object type
Payload
Rocket body
Debris
Shape & HBR
Box + 2 Pan, 18.1 m
Radar Cross Section
36.964 m², Large (>1 m²)

Expand to show TLE details & history
Last TLE update: 23 hours ago

TLE from 23 hours ago
0 STARLINK-11554
1 62833U 25019E   25306.43640354  .00235271  00000-0  17751-2 0  9997
2 62833  43.0005 353.3344 0000970 244.0054 116.0714 15.70980439 43863
Epoch: 2025-11-02T10:28Z
TLE epoch observation values (Epoch: 2025-11-02T10:28:25.265Z)
Latitude
-0.00002°
Longitude
154.27695°
Altitude
356.152 km
Speed
7.697 km/s
True Right ascension
23h 33m 20s
True Declination
0° 00' 00"
Sunlit
Object was in full shadow at epoch
Visualization orbit readout
Latitude
Unknown
Longitude
Unknown
Altitude
Unknown
Speed
Unknown
Apparent Right ascension
Unknown
Apparent Declination
Unknown
Sunlit
N/A
Visualization observer readout
Local Sidereal Time
05:07:23
Azimuth
Unknown
Elevation
Unknown
Doppler factor
Unknown
Orbital elements
Apogee altitude
358.729 km
Perigee altitude
357.422 km
Semi-major axis
6,736.212 km
Eccentricity
0.0001
Inclination
43.0005°
RAAN
353.3344°
Arg. of periapsis
244.0054°
True anomaly
116.08138°
Mean anomaly
116.0714°
Eccentric anomaly
116.07639°
Mean motion
3.92572 °/min
Orbital period
91.7 mins
BSTAR
0.0017751
Loading maneuver chart data...
Computing Atmospheric mass density...
Loading historical data...
Loading historical data...
Loading historical data...
Loading historical data...
Loading historical data...
Loading historical data...
Loading historical data...

Documentation

Showing up to 5 results
|